FW4331 Weather Reports


time (UTC)temp
C
wind
direction
speed
KPH
gust
KPH
rain 1hr
cm
rain 24hr
cm
rain mn
cm
humidity
%
barometer
mb
20260510054556 12 6 0.0 1.6 0.00 0.00 0.00 53 1008.8
20260510053054 12 6 0.0 1.6 0.00 0.00 0.00 54 1008.9
20260510051550 12 230 0.0 0.0 0.00 0.00 0.00 53 1009.0
20260510050046 13 230 0.0 0.0 0.00 0.00 0.00 52 1009.0
20260510044546 13 287 0.0 0.0 0.00 0.00 0.00 53 1009.0
20260510043042 13 334 0.0 3.2 0.00 0.00 0.00 54 1008.8
20260510041537 13 148 0.0 0.0 0.00 0.00 0.00 55 1008.8
20260510040036 13 148 0.0 0.0 0.00 0.00 0.00 57 1008.6
20260510034539 13 148 0.0 0.0 0.00 0.00 0.00 59 1008.7
20260510033031 13 148 0.0 0.0 0.00 0.00 0.00 59 1008.6
20260510031539 14 148 0.0 0.0 0.00 0.00 0.00 59 1008.4
20260510030026 14 148 0.0 0.0 0.00 0.00 0.00 60 1008.6
20260510024536 15 148 0.0 0.0 0.00 0.00 0.00 61 1008.4
20260510023023 15 148 0.0 0.0 0.00 0.00 0.00 59 1008.4
20260510021523 15 148 0.0 0.0 0.00 0.00 0.00 59 1008.2
20260510020018 16 148 0.0 0.0 0.00 0.00 0.00 57 1008.0
20260510014518 16 148 0.0 0.0 0.00 0.00 0.00 56 1007.8
20260510013014 16 148 0.0 0.0 0.00 0.00 0.00 55 1007.6
20260510011512 17 148 0.0 0.0 0.00 0.00 0.00 53 1007.3
20260510010009 18 148 0.0 0.0 0.00 0.00 0.00 50 1007.1
20260510004508 18 148 0.0 0.0 0.00 0.00 0.00 48 1006.8
20260510003016 19 148 0.0 0.0 0.00 0.00 0.00 49 1006.7
20260510001504 20 153 0.0 0.0 0.00 0.00 0.00 45 1006.7
20260510000108 20 153 0.0 0.0 0.00 0.00 0.00 43 1006.6
20260509234615 20 153 0.0 0.0 0.00 0.00 0.00 42 1006.5
20260509233058 21 153 0.0 0.0 0.00 0.00 0.00 41 1006.4
20260509231556 22 153 0.0 0.0 0.00 0.00 0.00 39 1006.2
20260509230100 22 145 0.0 1.6 0.00 0.00 0.00 35 1006.4
20260509224553 23 264 0.0 0.0 0.00 0.00 0.00 37 1006.3
20260509223051 23 264 0.0 0.0 0.00 0.00 0.00 34 1006.4
20260509221548 22 264 0.0 0.0 0.00 0.00 0.00 36 1006.4
20260509220047 22 264 0.0 3.2 0.00 0.00 0.00 35 1006.4
20260509214545 22 258 0.0 4.8 0.00 0.00 0.00 36 1006.5
20260509213044 22 285 0.0 4.8 0.00 0.00 0.00 35 1006.4
20260509211540 23 290 4.8 12.9 0.00 0.00 0.00 33 1006.2
20260509210044 23 231 4.8 14.5 0.00 0.00 0.00 33 1006.3
20260509204536 23 250 3.2 16.1 0.00 0.00 0.00 32 1006.1
20260509203037 24 263 3.2 9.7 0.00 0.00 0.00 33 1006.2
20260509201525 23 271 6.4 20.9 0.00 0.00 0.00 35 1006.2
20260509200025 23 241 3.2 12.9 0.00 0.00 0.00 35 1006.2
20260509194523 23 155 6.4 14.5 0.00 0.00 0.00 36 1006.4
20260509193014 22 232 6.4 17.7 0.00 0.00 0.00 37 1006.9
20260509191508 21 243 4.8 19.3 0.00 0.00 0.00 40 1007.0
20260509190003 21 179 4.8 17.7 0.00 0.00 0.00 40 1007.4
20260509184605 21 267 3.2 11.3 0.00 0.00 0.00 42 1007.6
20260509183138 21 232 3.2 9.7 0.00 0.00 0.00 41 1007.4
20260509181610 20 214 0.0 6.4 0.00 0.00 0.00 43 1007.9
20260509180052 20 271 1.6 9.7 0.00 0.00 0.00 43 1008.3
20260509174547 20 254 0.0 8.0 0.00 0.00 0.00 44 1008.4
20260509173044 20 233 0.0 8.0 0.00 0.00 0.00 45 1008.7
20260509171544 20 271 3.2 14.5 0.00 0.00 0.00 42 1008.7
20260509170040 21 234 1.6 11.3 0.00 0.00 0.00 41 1008.6
20260509164536 20 230 4.8 14.5 0.00 0.00 0.00 42 1008.6
20260509163033 19 289 1.6 9.7 0.00 0.00 0.00 45 1008.9
20260509161534 19 248 4.8 17.7 0.00 0.00 0.00 44 1009.0
20260509160028 19 209 6.4 16.1 0.00 0.00 0.00 44 1008.9
20260509154525 19 230 6.4 14.5 0.00 0.00 0.00 42 1008.9
20260509153022 19 153 8.0 17.7 0.00 0.00 0.00 42 1009.2
20260509151518 18 270 6.4 12.9 0.00 0.00 0.00 43 1009.1
20260509150017 18 280 3.2 11.3 0.00 0.00 0.00 44 1009.2
20260509144525 17 240 6.4 12.9 0.00 0.00 0.00 43 1009.3
20260509143008 17 226 6.4 14.5 0.00 0.00 0.00 45 1009.6
20260509141507 16 139 3.2 9.7 0.00 0.00 0.00 46 1009.7
20260509140001 16 176 6.4 14.5 0.00 0.00 0.00 46 1009.8
20260509134601 15 250 3.2 9.7 0.00 0.00 0.00 47 1009.7
20260509133051 14 278 0.0 6.4 0.00 0.00 0.00 49 1009.8
20260509131547 13 246 0.0 9.7 0.00 0.00 0.00 49 1009.8
20260509130045 13 265 0.0 8.0 0.00 0.00 0.00 49 1009.8
20260509124639 13 218 0.0 11.3 0.00 0.00 0.00 49 1009.8
20260509123036 13 229 1.6 6.4 0.00 0.00 0.00 50 1010.0
20260509121537 13 209 0.0 3.2 0.00 0.00 0.00 50 1009.9
20260509120031 13 238 0.0 3.2 0.00 0.00 0.00 49 1010.0
20260509114529 13 220 0.0 3.2 0.00 0.00 0.00 49 1009.8
20260509113028 12 223 0.0 6.4 0.00 0.00 0.00 48 1009.8
20260509111525 12 229 0.0 3.2 0.00 0.00 0.00 49 1009.7
20260509110020 -17 0.0 0.0 0.00 0.00 0.00 1009.6
20260509104525 -17 0.0 0.0 0.00 0.00 0.00 1009.6
20260509103009 -17 0.0 0.0 0.00 0.00 0.00 1009.4
20260509101504 -17 212 0.0 4.8 0.00 0.00 0.00 1009.4
20260509100004 13 247 1.6 6.4 0.00 0.00 0.00 46 1009.3
20260509094600 13 251 0.0 3.2 0.00 0.00 0.00 46 1009.3
20260509094500 13 259 0.0 3.2 0.00 0.00 0.00 46 1009.3
20260509093059 13 250 1.6 6.4 0.00 0.00 0.00 46 1009.4
20260509091555 12 253 0.0 6.4 0.00 0.00 0.00 46 1009.6
20260509090052 12 220 1.6 8.0 0.00 0.00 0.00 46 1009.7
20260509084554 12 219 1.6 9.7 0.00 0.00 0.00 47 1009.7
20260509083046 12 289 1.6 11.3 0.00 0.00 0.00 46 1009.7
20260509081545 12 200 1.6 11.3 0.00 0.00 0.00 46 1009.8
20260509080051 12 180 1.6 11.3 0.00 0.00 0.00 47 1010.1
20260509074539 12 174 1.6 9.7 0.00 0.00 0.00 47 1010.2
20260509073039 12 175 3.2 6.4 0.00 0.00 0.00 46 1010.2
20260509071533 12 200 0.0 8.0 0.00 0.00 0.00 45 1010.2
20260509070031 13 217 1.6 8.0 0.00 0.00 0.00 44 1010.1
20260509064528 13 196 1.6 11.3 0.00 0.00 0.00 44 1010.1
20260509063026 13 210 3.2 8.0 0.00 0.00 0.00 44 1010.3
20260509061524 13 231 4.8 9.7 0.00 0.00 0.00 44 1010.4
20260509060024 12 246 1.6 8.0 0.00 0.00 0.00 45 1010.6